Regional Weather Roundup
Issued by NWS

Home | Current Version | Previous Version | Graphics & Text | Print | Product List | Glossary On
Versions: 1 2 3 4 5 6 7 8 9 10 11 12 13 14 15 16 17 18 19 20 21 22 23 24 25 26 27
000
ASUS45 KBOU 221606
RWRCO

WEATHER ROUNDUP FOR COLORADO
NATIONAL WEATHER SERVICE DENVER/BOULDER CO
1000 AM MDT TUE APR 22 2014

NOTE: "FAIR" INDICATES FEW OR NO CLOUDS BELOW 12000 FEET WITH NO
SIGNIFICANT WEATHER AND/OR OBSTRUCTIONS TO VISIBILITY.

COZ001>005-013-030-031-221700-
...NORTHWEST COLORADO...

CITY           SKY/WX    TMP DP  RH WIND       PRES   REMARKS
CRAIG            N/A     57  36  45 NW5       29.95F
HAYDEN         PTSUNNY   57  32  38 E9        30.00F
MEEKER         PTSUNNY   64  29  26 SW21G29   29.97F
MOUNT WERNER   PTSUNNY   48  18  29 S20G30    30.20F
STEAMBOAT SPGS PTSUNNY   55  29  37 CALM      30.00F
WALDEN         CLOUDY    54  28  37 SE6       30.07F
$$

COZ006>008-011-221700-
...WEST CENTRAL VALLEYS...

CITY           SKY/WX    TMP DP  RH WIND       PRES   REMARKS
GRAND JUNCTION PTSUNNY   61  31  32 SE18      29.93F
MONTROSE       MOSUNNY   67  31  26 E14       30.01F
EAGLE          PTSUNNY   48  28  46 CALM      30.10F
RIFLE          PTSUNNY   56  35  45 MISG      29.97F
DELTA          NOT AVBL
NUCLA          NOT AVBL
$$

COZ017>023-064>068-221700-
...SOUTHWEST COLORADO...

CITY           SKY/WX    TMP DP  RH WIND       PRES   REMARKS
DURANGO        MOSUNNY   58  32  37 SE7       30.16F
CORTEZ         MOSUNNY   68  33  27 SW9       30.07F
PAGOSA SPRINGS CLOUDY    56  32  40 CALM      30.22F
TELLURIDE      PTSUNNY   55  27  33 SE6G24    30.20S
WOLF CREEK PAS CLOUDY    34  30  86 SW18G29   30.37F WCI  23
$$

COZ009-010-012-014-032>034-037-058>063-221700-
...CENTRAL COLORADO...

CITY           SKY/WX    TMP DP  RH WIND       PRES   REMARKS
ASPEN          MOSUNNY   56  29  35 S13       30.10S
BUENA VISTA    SUNNY     48  32  52 CALM      30.18F
COPPER MTN     MOSUNNY   41  23  48 S14       30.31F
BERTHOUD PASS  FAIR      34  27  75 W8G24     30.33S WCI  27
COTTONWOOD PAS SUNNY     50  32  50 E5        30.24F
GUNNISON       MOSUNNY   48  28  46 N3        30.20F
KREMMLING      MOSUNNY   50  28  43 CALM      30.11F
LEADVILLE      MOSUNNY   43  28  55 SW9       30.22F
MONARCH PASS   SUNNY     39  25  56 SW31G37   30.43S
SALIDA         SUNNY     56  33  42 CALM      30.22F
SUNLIGHT       CLOUDY    46  28  49 CALM      30.23F
WILKERSON PASS MOSUNNY   41  28  60 SW8       30.31F
$$

COZ069>075-221700-
...SAN LUIS VALLEY/SANGRE DE CRISTO MOUNTAINS...

CITY           SKY/WX    TMP DP  RH WIND       PRES   REMARKS
ALAMOSA        PTSUNNY   57  38  48 S16G24    30.18F
LA VETA PASS   MOSUNNY   43  32  65 SW12G22   30.28R
SAGUACHE       SUNNY     52  34  50 SE12      30.21F
$$

COZ035-036-038>040-221700-
...NORTHERN COLORADO FRONT RANGE...

CITY           SKY/WX    TMP DP  RH WIND       PRES   REMARKS
DENVER INTL AP PTSUNNY   68  35  29 SW15      29.97F
DMNS CITY PARK   N/A     67  33  27 SE6       29.96F
AURORA         PTSUNNY   68  32  26 SW15      29.98F
FRONT RANGE AP NOT AVBL
ERIE MUNI ARPT PTSUNNY   58  40  49 CALM      29.96F
BOULDER MUN AP PTSUNNY   57  39  51 CALM      29.96F
CENTENNIAL     PTSUNNY   67  31  26 SW15      29.99F
BROOMFIELD     NOT AVBL
FORT COLLINS   CLOUDY    52  39  62 CALM      29.98F
LONGMONT       NOT AVBL
$$

COZ041-046-047-076>085-087-088-221700-
...PIKES PEAK/PALMER DIVIDE AND SOUTHERN FOOTHILLS...

CITY           SKY/WX    TMP DP  RH WIND       PRES   REMARKS
COLO. SPRINGS  PTSUNNY   58  37  45 S9        30.08F
A. F. ACADEMY  SUNNY     57  38  48 S6        30.08F
ELLICOTT       NOT AVBL
FALCON         MOSUNNY   58  36  43 S7        30.10F
FORT CARSON    MOSUNNY   58  40  50 SE6       30.05F
LIMON          SUNNY     59  43  55 SE16      30.04F
MONUMENT HILL  SUNNY     63  30  29 SW13G18   30.07S
TRINIDAD       MOSUNNY   67  41  38 SW25G33   30.07F
$$

COZ042>045-048>051-090-091-221700-
...NORTHEAST COLORADO...

CITY           SKY/WX    TMP DP  RH WIND       PRES   REMARKS
GREELEY ARPT   CLOUDY    52  36  54 NW3       29.97F
AKRON          MOSUNNY   63  43  48 S21       29.98F
BURLINGTON     SUNNY     63  31  30 S33G43    30.04F
WRAY           SUNNY     66  32  28 S24G32    30.02F
STERLING       NOT AVBL
HOLYOKE        NOT AVBL
FORT MORGAN    NOT AVBL
$$

COZ086-089-092>099-221700-
...SOUTHEAST COLORADO...

CITY           SKY/WX    TMP DP  RH WIND       PRES   REMARKS
PUEBLO         MOSUNNY   60  41  49 CALM      30.03F
LA JUNTA       MOSUNNY   69  44  40 SW10      30.01F
LAMAR          SUNNY     72  46  39 S22G31    30.01F
SPRINGFIELD      N/A     66  45  46 S30G38    30.09F
$$



USA.gov is the U.S. government's official web portal to all federal, state and local government web resources and services.